SCP
0 0 0 0 0 0 0 0 0 0 0 0 0 0 0 0 0 0 0 0 0 0 0 0 0 0 0 0 0 0 0 0
0 0 0 0 0 0 0 0 0 0 0 0 0 0 0 0 0 0 0 0 0 0 0 0 0 0 0 0 0 0 0 0
0 0 0 0 0 0 0 0 0 0 0 0 0 0 0 0 0 0 0 0 0 0 0 0 0 0 0 0 0 0 0 0
0 0 0 0 0 0 0 0 0 0 0 0 0 0 0 0 0 0 0 0 0 0 0 0 0 0 0 0 0 0 0 0
0 0 0 0 0 0 0 0 0 0 0 0 0 0 0 0 0 0 0 0 0 0 0 0 0 0 0 0 0 0 0 0
0 0 0 0 0 0 0 0 0 0 0 0 0 0 0 0 0 0 0 0 0 0 0 0 0 0 0 0 0 0 0 0
0 0 0 0 0 0 0 0 0 0 0 0 0 0 0 0 0 0 0 0 0 0 0 0 0 0 0 0 0 0 0 0
0 0 0 0 0 0 0 0 0 0 0 0 0 0 0 0 0 0 0 0 0 0 0 0 0 0 0 0 0 0 0 0
0 0 0 0 0 0 0 0 0 0 0 0 0 0 0 0 0 0 0 0 0 0 0 0 0 0 0 0 0 0 0 0
0 0 0 0 0 0 0 0 0 0 0 0 0 0 0 0 0 0 0 0 0 0 0 0 0 0 0 0 0 0 0 0
0 0 0 0 -0 -0 0 -0 0 0 0 0 0 0 0 0 -0 -0 -0 0 0 0 0 0 0 0 0 0 0 0 0 0
-0 -0 0 0 0 0 0 0 0 0 0 0 0 -0 -0 -0 -0 -0 0 0 0 0 0 0 0 0 0 0 0 0 0 0
0 0 0 0 0 0 0 0 0 0 0 -0 -0 -0 -0 -0 -0 0 0 0 0 0 0 0 0 0 0 0 0 0 0 0
0 0 0 0 0 0 0 0 0 0 -0 -0 -0 -0 -0 -0 -0 0 0 0 0 0 0 0 0 0 0 0 0 0 0 0
0 0 0 0 -0 -0 -0 -0 0 -0 -0 -0 -0 -0 -0 -0 -0 -0 -0 -0 0 0 0 0 0 0 0 0 0 0 0 0
0 0 0 0 0 0 0 0 -0 -0 -0 -0 -0 -0 -0 -0 -0 0 0 0 0 0 0 0 0 0 0 0 0 0 0 0
-0 -0 -0 0 0 0 -0 -0 -0 -0 -0 0 0 0 -0 -0 -0 -0 -0 0 0 0 0 0 0 0 0 0 0 0 0 0
-0 -0 -0 -0 -0 -0 -0 -0 -0 -0 0 0 0 -0 -0 0 0 0 0 0 0 0 0 0 0 0 0 0 0 0 0 0
-0 -0 -0 -0 -0 0 -0 0 0 0 0 0 0 0 0 0 0 0 0 0 0 0 0 0 0 0 0 0 0 0 0 0
0 0 0 0 0 0 0 0 0 0 0 0 0 0 0 0 0 0 0 0 0 0 0 0 0 0 0 0 0 0 0 0
Wind_Speed_500mb
70 58 49 38 44 58 79 87 94 92 92 96 93 91 95 97 87 83 72 64 61 56 50 51 48 40 43 42 33 27 29 25
69 58 53 43 52 67 78 86 90 84 92 95 94 97 95 94 85 81 73 66 61 60 59 50 52 49 37 31 32 28 26 22
55 54 39 33 42 59 77 86 83 86 88 90 93 94 93 89 83 75 69 70 68 60 56 56 53 41 34 32 29 22 18 15
40 27 18 24 42 62 76 85 85 95 91 89 91 87 81 80 75 80 76 74 68 66 58 52 45 36 33 27 24 19 14 11
19 8 18 33 51 69 82 81 85 86 83 85 77 73 75 86 90 89 80 72 67 64 54 45 39 34 29 23 20 16 13 8
6 9 22 37 52 67 76 80 83 83 77 78 76 84 95 95 88 83 81 71 61 58 50 43 35 29 24 21 17 13 9 3
18 23 32 41 50 59 66 73 73 76 83 94 105 107 104 92 89 83 74 66 55 52 45 41 33 27 23 17 13 8 3 3
29 37 48 59 66 63 69 72 82 93 104 105 108 102 100 94 84 77 66 59 52 47 41 39 32 26 19 14 8 5 4 10
44 48 56 66 77 90 93 98 105 111 112 104 100 101 91 83 79 69 61 53 47 44 39 34 29 22 16 9 6 4 9 14
51 58 67 75 81 88 99 108 111 106 99 96 91 89 85 77 70 64 57 50 44 39 35 28 25 19 12 7 6 8 12 15
55 64 71 77 86 101 104 99 97 96 90 86 83 78 75 71 64 58 48 46 43 39 31 26 19 16 11 7 6 9 12 19
59 66 74 82 82 83 85 88 85 82 79 76 71 69 63 60 55 50 47 43 37 30 26 20 16 12 6 3 5 11 17 20
57 54 54 61 70 79 79 74 70 68 67 64 60 58 56 51 48 42 37 32 29 23 21 17 11 5 3 9 15 18 18 20
50 56 55 51 51 64 66 62 62 61 61 58 55 51 45 41 40 35 29 24 24 18 14 11 5 4 10 16 18 18 21 25
40 45 48 45 48 52 55 53 54 55 54 52 49 46 39 33 31 27 24 20 17 14 10 4 3 7 10 11 15 20 20 23
32 43 44 41 43 44 45 44 46 48 50 47 41 34 31 30 27 22 24 20 14 10 6 4 7 9 12 15 20 26 28 31
32 39 43 38 39 39 35 32 31 37 39 37 29 21 21 22 29 28 19 13 9 4 3 3 5 7 11 18 24 27 32 36
25 29 36 40 41 39 34 26 25 27 29 26 16 16 17 20 18 17 16 10 8 5 1 1 1 8 17 24 27 30 34 38
23 27 29 30 32 32 31 33 27 23 23 18 13 12 14 13 11 9 7 9 8 8 7 3 8 13 20 24 28 31 35 40
26 28 29 28 29 30 31 31 27 27 24 20 17 17 16 14 14 13 11 8 6 5 2 3 9 15 22 27 31 34 37 42
Wind_Direction_500mb
311 310 286 252 233 215 224 227 216 212 216 217 217 216 216 215 211 209 197 199 192 180 172 156 148 145 126 116 126 139 149 151
307 306 288 253 233 218 220 213 208 217 213 217 214 214 209 208 200 193 190 184 171 160 151 147 139 117 119 132 144 152 152 143
306 304 298 262 225 209 208 200 203 216 215 211 211 206 204 195 185 181 169 157 151 147 147 133 115 129 146 146 145 148 133 130
312 304 254 224 196 198 194 197 202 203 205 202 200 196 184 175 166 153 148 147 146 147 126 122 133 145 146 146 141 134 140 134
310 255 180 170 174 180 180 187 194 192 193 189 177 170 160 147 146 141 142 143 133 121 129 139 150 144 143 139 140 148 141 133
16 146 151 158 163 167 169 175 180 179 169 163 156 147 140 140 139 137 139 127 129 136 146 141 140 140 138 144 145 144 131 132
87 117 131 136 144 146 150 153 162 152 147 142 142 141 138 137 141 135 128 135 145 147 141 138 140 144 145 142 135 139 145 20
87 112 123 127 134 134 137 139 139 138 136 138 138 136 137 139 132 129 137 146 144 142 142 141 144 145 137 131 155 112 37 358
87 108 118 126 130 135 135 135 135 134 135 138 139 138 135 130 128 140 143 145 144 141 145 146 139 140 144 132 117 53 5 343
98 107 119 124 129 130 132 131 131 132 134 137 138 131 128 133 140 141 142 143 142 144 146 144 138 133 124 98 49 6 339 330
110 116 119 123 128 127 125 128 129 133 136 133 127 131 140 138 137 138 143 145 149 145 143 135 130 106 79 52 357 338 334 331
109 111 117 123 124 123 125 124 128 129 128 134 138 135 134 135 137 143 149 146 145 140 131 119 102 97 84 357 335 341 333 327
105 106 111 116 121 123 123 125 130 132 131 129 131 136 136 138 138 143 144 141 134 130 122 119 119 97 3 345 345 343 340 339
103 106 109 113 122 126 123 129 129 131 131 134 137 134 134 139 139 142 138 133 125 127 125 119 102 20 358 346 351 353 353 344
118 113 115 121 126 122 127 133 136 135 135 137 139 139 137 140 138 133 127 127 131 135 133 129 54 7 347 353 356 357 352 342
130 122 120 128 129 129 134 140 144 143 144 145 142 140 142 142 131 132 144 146 143 144 138 61 9 1 0 352 349 352 353 348
134 140 130 132 131 134 138 144 152 148 147 149 148 148 148 150 150 155 161 154 148 136 129 28 14 358 349 349 353 348 341 338
135 137 141 151 150 148 146 152 161 158 156 156 157 153 153 155 160 162 162 161 172 186 209 205 319 1 352 344 339 335 333 331
140 143 145 150 153 154 156 155 165 171 169 170 168 160 158 161 165 163 164 184 188 193 187 70 12 345 334 328 328 327 325 326
145 150 152 154 158 159 165 168 178 177 180 176 182 185 184 192 206 215 213 207 213 190 127 348 322 323 322 318 322 322 324 324
Wind_Speed_850mb
70 58 49 38 44 58 79 87 94 92 92 96 93 91 95 97 87 83 72 64 61 56 50 51 48 40 43 42 33 27 29 25
69 58 53 43 52 67 78 86 90 84 92 95 94 97 95 94 85 81 73 66 61 60 59 50 52 49 37 31 32 28 26 22
55 54 39 33 42 59 77 86 83 86 88 90 93 94 93 89 83 75 69 70 68 60 56 56 53 41 34 32 29 22 18 15
40 27 18 24 42 62 76 85 85 95 91 89 91 87 81 80 75 80 76 74 68 66 58 52 45 36 33 27 24 19 14 11
19 8 18 33 51 69 82 81 85 86 83 85 77 73 75 86 90 89 80 72 67 64 54 45 39 34 29 23 20 16 13 8
6 9 22 37 52 67 76 80 83 83 77 78 76 84 95 95 88 83 81 71 61 58 50 43 35 29 24 21 17 13 9 3
18 23 32 41 50 59 66 73 73 76 83 94 105 107 104 92 89 83 74 66 55 52 45 41 33 27 23 17 13 8 3 3
29 37 48 59 66 63 69 72 82 93 104 105 108 102 100 94 84 77 66 59 52 47 41 39 32 26 19 14 8 5 4 10
44 48 56 66 77 90 93 98 105 111 112 104 100 101 91 83 79 69 61 53 47 44 39 34 29 22 16 9 6 4 9 14
51 58 67 75 81 88 99 108 111 106 99 96 91 89 85 77 70 64 57 50 44 39 35 28 25 19 12 7 6 8 12 15
55 64 71 77 86 101 104 99 97 96 90 86 83 78 75 71 64 58 48 46 43 39 31 26 19 16 11 7 6 9 12 19
59 66 74 82 82 83 85 88 85 82 79 76 71 69 63 60 55 50 47 43 37 30 26 20 16 12 6 3 5 11 17 20
57 54 54 61 70 79 79 74 70 68 67 64 60 58 56 51 48 42 37 32 29 23 21 17 11 5 3 9 15 18 18 20
50 56 55 51 51 64 66 62 62 61 61 58 55 51 45 41 40 35 29 24 24 18 14 11 5 4 10 16 18 18 21 25
40 45 48 45 48 52 55 53 54 55 54 52 49 46 39 33 31 27 24 20 17 14 10 4 3 7 10 11 15 20 20 23
32 43 44 41 43 44 45 44 46 48 50 47 41 34 31 30 27 22 24 20 14 10 6 4 7 9 12 15 20 26 28 31
32 39 43 38 39 39 35 32 31 37 39 37 29 21 21 22 29 28 19 13 9 4 3 3 5 7 11 18 24 27 32 36
25 29 36 40 41 39 34 26 25 27 29 26 16 16 17 20 18 17 16 10 8 5 1 1 1 8 17 24 27 30 34 38
23 27 29 30 32 32 31 33 27 23 23 18 13 12 14 13 11 9 7 9 8 8 7 3 8 13 20 24 28 31 35 40
26 28 29 28 29 30 31 31 27 27 24 20 17 17 16 14 14 13 11 8 6 5 2 3 9 15 22 27 31 34 37 42
Wind_Direction_850mb
311 310 286 252 233 215 224 227 216 212 216 217 217 216 216 215 211 209 197 199 192 180 172 156 148 145 126 116 126 139 149 151
307 306 288 253 233 218 220 213 208 217 213 217 214 214 209 208 200 193 190 184 171 160 151 147 139 117 119 132 144 152 152 143
306 304 298 262 225 209 208 200 203 216 215 211 211 206 204 195 185 181 169 157 151 147 147 133 115 129 146 146 145 148 133 130
312 304 254 224 196 198 194 197 202 203 205 202 200 196 184 175 166 153 148 147 146 147 126 122 133 145 146 146 141 134 140 134
310 255 180 170 174 180 180 187 194 192 193 189 177 170 160 147 146 141 142 143 133 121 129 139 150 144 143 139 140 148 141 133
16 146 151 158 163 167 169 175 180 179 169 163 156 147 140 140 139 137 139 127 129 136 146 141 140 140 138 144 145 144 131 132
87 117 131 136 144 146 150 153 162 152 147 142 142 141 138 137 141 135 128 135 145 147 141 138 140 144 145 142 135 139 145 20
87 112 123 127 134 134 137 139 139 138 136 138 138 136 137 139 132 129 137 146 144 142 142 141 144 145 137 131 155 112 37 358
87 108 118 126 130 135 135 135 135 134 135 138 139 138 135 130 128 140 143 145 144 141 145 146 139 140 144 132 117 53 5 343
98 107 119 124 129 130 132 131 131 132 134 137 138 131 128 133 140 141 142 143 142 144 146 144 138 133 124 98 49 6 339 330
110 116 119 123 128 127 125 128 129 133 136 133 127 131 140 138 137 138 143 145 149 145 143 135 130 106 79 52 357 338 334 331
109 111 117 123 124 123 125 124 128 129 128 134 138 135 134 135 137 143 149 146 145 140 131 119 102 97 84 357 335 341 333 327
105 106 111 116 121 123 123 125 130 132 131 129 131 136 136 138 138 143 144 141 134 130 122 119 119 97 3 345 345 343 340 339
103 106 109 113 122 126 123 129 129 131 131 134 137 134 134 139 139 142 138 133 125 127 125 119 102 20 358 346 351 353 353 344
118 113 115 121 126 122 127 133 136 135 135 137 139 139 137 140 138 133 127 127 131 135 133 129 54 7 347 353 356 357 352 342
130 122 120 128 129 129 134 140 144 143 144 145 142 140 142 142 131 132 144 146 143 144 138 61 9 1 0 352 349 352 353 348
134 140 130 132 131 134 138 144 152 148 147 149 148 148 148 150 150 155 161 154 148 136 129 28 14 358 349 349 353 348 341 338
135 137 141 151 150 148 146 152 161 158 156 156 157 153 153 155 160 162 162 161 172 186 209 205 319 1 352 344 339 335 333 331
140 143 145 150 153 154 156 155 165 171 169 170 168 160 158 161 165 163 164 184 188 193 187 70 12 345 334 328 328 327 325 326
145 150 152 154 158 159 165 168 178 177 180 176 182 185 184 192 206 215 213 207 213 190 127 348 322 323 322 318 322 322 324 324